Simultaneous Nadir Overpasses (SNOs) Predictions

Prediction of SNOs between METOP-A and NOAA-19 Satellite Orbit:

Table of predicted SNOs for the next 14.0 days since TLE Epoch: 4/9/2016
Index Date (METOP-A) Time (METOP-A) Lat,Lon (METOP-A) SZA (METOP-A ) Date (NOAA-19) Time (NOAA-19) Lat,Lon (NOAA-19) SZA (NOAA-19 ) Distance(km) Time Diff (sec)
1 04/17/2016 16:45:36 -76.00, 108.52 114.88 04/17/2016 16:44:21 -75.99, 108.33 114.89 5.15 75
2 04/17/2016 17:36:16 75.98, -84.21 65.09 04/17/2016 17:35:18 75.97, -84.33 65.08 3.17 58
3 04/17/2016 18:26:59 -75.93, 82.97 114.97 04/17/2016 18:26:22 -75.94, 83.01 114.96 1.27 37
4 04/17/2016 19:17:39 75.91,-109.77 65.00 04/17/2016 19:17:19 75.92,-109.65 65.00 3.15 20
5 04/17/2016 20:08:21 -75.91, 57.57 115.01 04/17/2016 20:08:24 -75.93, 57.52 115.00 2.40 3
6 04/17/2016 20:59:01 75.89,-135.17 64.96 04/17/2016 20:59:21 75.91,-135.14 64.97 2.06 20
7 04/17/2016 21:49:43 -75.90, 32.17 115.06 04/17/2016 21:50:25 -75.88, 32.19 115.07 1.77 42
8 04/17/2016 22:40:23 75.88,-160.57 64.91 04/17/2016 22:41:22 75.86,-160.47 64.90 3.14 59
9 04/17/2016 23:31:11 -75.60, 5.87 115.38 04/17/2016 23:32:21 -75.61, 7.63 115.37 48.72 70




NCC Satellite Simultaneous Nadir Overpasses (SNOs) Prediction Service
